SCP
0 0 0 0 0 0 0 0 0 0 0 0 0 0 0 0 0 0 0 0 0 0 0 0 0 0 0 0 0 0 0 0 0 0 0 0 0 0 0 0 0 0 0 0 0 0 0 0 0
0 0 0 0 0 0 0 0 0 0 0 0 0 0 0 0 0 0 0 0 0 0 0 0 0 0 0 0 0 0 0 0 0 0 0 0 0 0 0 0 0 0 0 0 0 0 0 0 0
0 0 0 0 0 0 0 0 0 0 0 0 0 0 0 0 0 0 0 0 0 0 0 0 0 0 0 0 0 0 0 0 0 0 0 0 0 0 0 0 0 0 0 0 0 0 0 0 0
0 0 0 0 0 0 0 0 0 0 0 0 0 0 0 0 0 0 0 0 0 0 0 0 0 0 0 0 0 0 0 0 0 0 0 0 0 0 0 0 0 0 0 0 0 0 0 0 0
0 0 0 0 0 0 0 0 0 0 0 0 0 0 0 0 0 0 0 0 0 0 0 0 0 0 0 0 0 0 0 0 0 0 0 0 0 0 0 0 0 0 0 0 0 0 0 0 0
0 0 0 0 0 0 0 0 0 0 0 0 0 0 0 0 0 0 0 0 0 0 0 0 0 0 0 0 0 0 0 0 0 0 0 0 0 0 0 0 0 0 0 0 0 0 0 0 0
0 0 0 0 0 0 0 0 0 0 0 0 0 0 0 0 0 0 0 0 0 0 0 0 0 0 0 0 0 0 0 0 0 0 0 0 0 0 0 0 0 0 0 0 0 0 0 0 0
0 0 0 0 0 0 0 0 0 0 0 0 0 0 0 0 0 0 0 0 0 0 0 0 0 0 0 0 0 0 0 0 0 0 0 0 0 0 0 0 0 0 0 0 0 0 0 0 0
0 0 0 0 0 0 0 0 0 0 0 0 0 0 0 0 0 0 0 0 0 0 0 0 0 0 0 0 0 0 0 0 0 0 0 0 0 0 0 0 0 0 0 0 0 0 0 0 0
0 0 0 0 0 0 0 0 0 0 0 0 0 0 0 0 0 0 0 0 0 0 0 0 0 0 0 0 0 0 0 0 0 0 0 0 0 0 0 0 0 0 0 0 0 0 0 0 0
0 0 0 0 0 0 0 0 0 0 0 0 0 0 0 0 0 0 0 0 0 0 0 0 0 0 0 0 0 0 0 0 0 0 0 0 0 0 0 0 0 0 0 0 0 0 0 0 0
0 0 0 0 0 0 0 0 0 0 0 0 0 0 0 0 0 0 0 0 0 0 0 0 0 0 0 0 0 0 0 0 0 0 0 0 0 0 0 0 0 0 0 0 0 0 0 0 0
0 0 0 0 0 0 0 0 0 0 0 0 0 0 0 0 0 0 0 0 0 0 0 0 0 0 0 0 0 0 0 0 0 0 0 0 0 0 0 0 0 0 0 0 0 0 0 0 0
0 0 0 0 0 0 0 0 0 0 0 0 0 0 0 0 0 0 0 0 0 0 0 0 0 0 0 0 0 0 0 0 0 0 0 0 0 0 0 0 0 0 0 0 0 0 0 0 0
0 0 0 0 0 0 0 0 0 0 0 0 0 0 0 0 0 0 0 0 0 0 0 0 0 0 0 0 0 0 0 0 0 0 0 0 0 0 0 0 0 0 0 0 0 0 0 0 0
0 0 0 0 0 0 0 0 0 0 0 0 0 0 0 0 0 0 0 0 0 0 0 0 0 0 0 0 0 0 0 0 0 0 0 0 0 0 0 0 0 0 0 0 0 0 0 0 0
0 -0 0 0 0 0 0 0 0 0 0 0 0 0 0 0 0 0 0 0 0 0 0 0 0 0 0 0 0 0 0 0 0 0 0 0 0 0 0 0 0 0 0 0 0 0 0 0 0
-0 -0 0 0 0 0 0 0 0 0 0 0 0 0 0 0 0 0 0 0 0 0 0 0 0 0 0 0 0 0 0 0 0 0 0 0 0 0 0 0 0 0 0 0 0 0 0 0 0
0 -0 0 0 0 0 0 0 0 0 0 0 0 0 0 0 0 0 0 0 0 0 0 0 0 0 0 0 0 0 0 0 0 0 0 0 0 0 0 0 0 0 0 0 0 0 0 0 0
0 0 0 0 0 0 0 0 0 0 0 0 0 0 0 0 0 0 0 0 0 0 0 0 0 0 0 0 0 0 0 0 0 0 0 0 0 0 0 0 0 0 0 0 0 0 0 0 0
0 0 0 0 0 0 0 0 0 0 0 0 0 0 0 0 0 0 0 0 0 0 0 0 0 0 0 0 0 0 0 0 0 0 0 0 0 0 0 0 0 0 0 0 0 0 0 0 0
0 0 0 0 0 0 0 0 0 0 0 0 0 0 0 0 0 0 0 1 0 0 0 0 0 0 0 0 0 0 0 0 0 0 0 0 0 0 0 0 0 0 0 0 0 0 0 0 0
0 0 0 0 0 0 0 0 0 0 0 0 0 0 0 0 0 0 0 1 1 0 0 0 0 0 0 0 0 0 0 0 0 0 0 0 0 0 0 0 0 0 0 0 0 0 0 0 0
0 0 0 0 0 0 0 0 0 0 0 0 0 0 0 0 0 0 0 1 1 0 0 0 0 0 0 0 0 0 0 0 0 0 0 0 0 0 0 0 0 0 0 0 0 0 0 0 0
0 0 0 0 0 0 0 0 0 0 0 0 0 0 0 0 0 0 0 1 1 1 1 1 1 1 1 1 0 0 0 0 0 0 0 0 0 0 0 0 0 0 0 0 0 0 0 0 0
0 0 0 0 0 0 0 0 0 0 0 0 0 0 0 0 0 0 0 1 1 1 1 1 1 1 1 1 1 1 1 0 0 0 0 0 0 0 0 0 0 0 0 0 0 0 0 0 0
0 0 0 0 0 0 0 0 0 0 0 0 0 0 0 0 0 0 0 0 1 1 1 1 1 1 1 1 1 1 1 1 0 0 0 0 0 0 0 0 0 0 0 0 0 0 0 0 0
0 0 0 0 0 0 0 0 0 0 0 0 0 0 0 0 0 0 0 0 1 1 1 1 1 1 1 1 1 1 1 1 1 1 1 0 0 1 1 0 0 0 0 0 0 0 0 0 0
0 0 0 0 0 0 0 0 0 0 0 0 0 0 0 0 0 0 0 0 0 1 1 1 1 1 1 1 1 1 1 1 1 1 1 1 1 1 1 1 1 0 0 0 1 1 0 0 0
0 0 0 0 0 0 0 0 0 0 0 0 0 0 0 0 0 0 0 0 0 1 1 1 1 1 1 1 1 1 1 1 1 1 1 1 1 1 1 1 1 1 0 1 1 1 1 1 1
Wind_Speed
11 8 5 5 6 3 11 9 7 7 7 7 7 5 7 8 7 8 7 9 9 10 11 11 13 14 15 16 16 16 16 16 16 15 15 15 15 15 14 14 14 14 13 13 13 12 12 11 11
7 5 6 6 1 8 11 9 9 9 8 6 6 6 7 8 8 8 8 9 11 11 11 12 15 14 15 15 16 16 16 16 15 14 14 14 14 14 14 13 13 12 12 12 12 12 11 10 10
6 6 6 3 7 10 10 9 9 8 6 4 5 6 6 7 7 7 9 12 12 12 12 14 15 15 15 15 15 15 16 15 14 14 13 13 13 13 13 12 12 11 11 11 11 11 10 9 9
5 6 6 2 12 11 9 8 8 7 7 5 6 8 8 6 5 8 12 13 12 13 13 15 15 15 14 14 14 14 15 14 14 13 12 12 12 12 11 11 11 10 10 10 10 9 9 8 8
6 5 2 9 12 10 8 8 5 5 6 6 6 9 9 7 9 12 12 12 12 12 12 15 14 14 14 13 13 13 14 14 13 12 11 10 10 10 10 10 9 9 9 9 8 8 8 7 7
5 4 4 10 12 9 8 6 6 7 8 7 8 10 9 8 11 12 12 11 11 12 11 13 14 14 13 13 12 13 13 13 12 11 11 10 9 9 9 8 8 8 7 7 7 7 7 6 6
5 3 7 9 9 9 7 5 5 6 7 7 7 9 9 10 11 11 11 10 10 11 11 11 12 12 13 12 12 12 11 11 11 10 10 9 9 8 8 7 7 6 6 6 6 6 5 5 5
5 3 5 8 8 9 7 5 6 5 8 8 4 7 10 12 12 12 11 10 9 9 10 10 10 9 10 11 11 10 10 10 10 9 9 9 9 9 8 7 6 6 5 5 5 5 4 4 4
6 2 7 8 7 7 6 6 6 6 9 7 5 7 14 16 14 13 12 10 9 8 8 9 10 9 8 9 11 10 10 10 9 9 9 8 7 7 7 7 6 5 5 4 4 4 4 5 6
5 3 9 6 5 5 5 5 6 7 8 8 10 12 17 16 15 13 13 12 11 10 9 8 8 8 8 7 7 6 7 7 6 5 6 5 4 3 4 8 6 5 5 5 5 4 6 7 5
2 4 5 4 4 3 5 5 5 5 5 8 13 17 18 16 14 13 12 12 11 11 9 9 7 7 7 5 5 4 3 4 5 5 4 3 4 4 4 4 5 5 7 5 7 7 4 3 1
1 2 2 2 3 2 4 5 5 3 6 8 14 19 18 16 14 13 12 12 11 11 10 9 9 7 6 4 4 4 3 3 3 4 5 3 2 2 3 2 3 3 2 2 2 2 2 2 2
1 2 2 2 2 3 4 5 5 5 8 12 16 18 17 15 13 12 11 11 11 11 11 9 8 7 5 4 3 3 3 3 3 3 3 3 2 2 2 2 1 2 2 3 3 2 2 2 3
2 1 2 2 3 4 5 5 4 6 10 14 16 16 15 14 14 12 11 11 11 10 10 9 9 8 7 5 4 3 3 2 2 3 3 3 2 2 2 2 2 1 2 1 2 2 2 2 2
2 3 3 3 2 3 4 5 4 9 11 13 14 14 14 13 13 12 12 11 11 11 10 10 9 9 8 7 6 4 3 4 3 2 3 3 3 2 2 2 2 1 1 2 2 2 2 3 3
6 6 4 4 2 3 5 3 7 10 12 12 13 13 13 13 13 12 12 11 11 10 10 10 9 9 9 7 6 4 3 3 3 3 3 4 3 3 2 2 2 1 2 2 2 2 2 2 2
8 6 2 4 3 3 5 2 8 9 10 11 11 12 12 12 13 12 12 12 11 11 10 10 9 9 9 8 6 5 4 4 3 3 3 4 4 4 3 2 1 3 2 2 3 2 2 2 2
5 5 3 2 3 4 5 3 7 8 9 10 11 12 12 12 13 13 13 12 11 11 11 10 10 10 9 7 6 5 5 5 4 4 4 4 4 5 4 3 3 3 2 2 2 2 2 2 2
6 7 5 1 1 4 5 3 5 8 9 9 10 11 12 12 12 12 13 12 12 12 11 11 11 10 8 7 7 6 6 5 5 5 5 6 5 5 4 3 3 3 2 2 3 3 4 3 2
8 8 5 2 1 4 4 4 4 7 9 9 11 12 12 12 12 12 13 13 13 13 12 12 12 11 10 7 6 5 5 5 4 4 5 6 6 6 6 5 4 3 2 3 3 3 3 2 2
9 8 6 4 3 6 5 6 7 7 8 9 10 11 12 12 13 14 14 13 13 13 13 12 12 12 11 9 7 6 5 5 5 6 5 6 7 7 6 5 5 3 4 3 4 4 4 3 2
8 5 6 6 7 6 7 6 6 8 9 9 10 11 12 12 13 13 14 14 14 13 13 13 13 12 12 11 10 9 7 6 6 5 5 6 7 7 6 6 6 5 4 4 5 4 4 4 3
6 3 6 8 9 9 9 9 5 8 8 9 10 11 11 12 13 14 14 14 13 13 12 12 12 12 12 12 11 10 9 7 6 5 5 6 6 7 7 7 6 6 5 5 5 3 5 4 4
4 5 5 7 9 11 9 10 7 6 6 6 8 9 10 11 12 12 12 12 12 12 11 11 12 12 12 12 12 11 10 8 7 7 6 6 5 6 8 7 6 6 5 5 5 5 6 5 4
9 9 8 9 9 8 4 8 5 1 3 4 5 7 8 9 11 12 12 13 13 13 13 12 12 12 12 13 12 12 11 10 10 9 7 7 6 6 6 6 6 6 6 6 5 6 5 6 5
10 11 9 8 8 5 6 8 2 2 2 3 4 5 6 8 9 11 12 12 12 13 13 13 13 12 12 12 12 11 11 9 8 9 8 7 6 5 5 6 6 7 7 6 6 5 6 5 6
9 10 9 10 11 10 6 5 4 4 5 4 3 4 5 6 7 9 10 11 12 12 13 13 12 12 12 12 12 11 11 10 9 8 8 7 6 5 6 7 7 7 7 7 6 5 6 5 6
8 7 7 10 9 11 9 9 6 6 4 4 4 3 4 4 6 7 8 9 10 11 11 12 12 12 11 11 11 9 10 10 9 8 8 7 6 6 6 7 7 7 7 7 7 6 6 6 6
9 9 9 9 9 10 9 4 1 2 3 2 2 2 3 4 5 6 6 7 9 9 10 11 11 11 11 10 10 9 9 9 9 8 8 7 7 7 7 7 7 7 7 7 7 7 7 7 7
9 10 11 10 9 10 11 4 3 0 1 1 1 0 1 2 3 4 5 6 7 8 9 10 10 10 10 9 9 9 8 8 8 8 8 8 7 8 7 7 8 8 8 7 8 8 7 7 7
Wind_Direction
178 186 213 235 233 99 66 63 64 73 74 65 62 57 58 40 29 75 104 125 124 126 125 129 122 121 123 123 122 121 121 120 118 118 118 118 117 115 113 114 114 114 114 112 110 108 107 106 105
177 190 229 240 291 73 70 63 65 64 85 99 83 75 72 66 60 97 122 126 131 125 127 123 124 122 122 122 122 123 122 120 119 119 119 119 119 119 118 117 116 117 116 115 112 111 109 108 107
188 227 258 256 53 56 66 70 81 91 98 95 90 66 58 72 88 108 123 134 131 122 121 118 124 123 122 122 122 124 123 123 122 120 119 120 121 121 121 120 118 117 118 117 115 113 110 108 107
218 225 233 66 67 62 69 84 101 111 103 90 101 92 80 71 91 115 128 136 129 126 125 121 127 125 123 122 123 125 125 125 124 123 123 123 124 123 122 121 119 120 120 120 119 116 113 112 112
240 255 161 77 70 71 78 87 100 96 97 100 99 99 90 82 106 120 130 134 129 125 124 124 128 128 127 126 126 127 129 129 128 127 126 127 126 124 123 122 122 121 123 123 125 124 121 118 118
246 250 64 71 74 82 92 100 98 92 100 108 111 106 92 114 122 126 129 130 126 127 127 125 129 130 130 129 129 130 131 132 132 132 132 132 130 128 126 124 125 123 125 130 131 132 129 124 123
297 343 62 70 77 84 86 94 83 98 108 110 117 106 115 128 127 130 127 128 128 130 131 132 136 135 135 133 135 133 134 135 134 135 135 135 134 134 132 131 130 130 131 134 136 135 132 131 131
295 284 77 71 68 78 97 100 83 86 95 111 127 120 134 137 138 135 131 129 128 131 132 136 135 134 141 139 138 137 137 135 135 137 139 143 147 147 148 155 142 143 143 144 145 143 141 140 141
265 273 64 60 55 79 110 114 99 102 117 117 98 97 126 139 143 142 139 137 136 137 139 141 136 140 142 141 140 147 146 142 151 149 152 167 162 153 162 132 136 152 157 160 161 155 156 164 163
266 39 56 46 45 78 117 111 124 140 134 126 118 113 130 144 150 151 150 149 149 148 147 143 143 145 144 141 141 157 155 151 158 147 156 155 143 148 140 130 157 167 169 175 175 176 190 211 176
301 21 40 48 55 84 123 123 134 145 131 141 145 143 149 154 157 157 155 155 152 151 153 156 149 148 145 145 152 149 141 145 155 151 157 153 161 158 157 154 164 175 186 185 168 192 203 194 178
286 31 21 41 77 101 113 125 129 110 82 128 145 150 156 162 164 164 162 159 155 158 161 160 157 158 159 155 147 156 155 155 154 154 178 168 167 165 145 165 159 173 176 185 193 192 187 195 208
226 25 41 73 122 110 118 117 111 107 110 127 141 153 161 165 165 166 163 161 162 166 167 166 165 163 164 168 179 163 160 168 162 171 180 187 181 172 155 161 181 191 178 189 197 202 191 206 205
4 360 67 90 122 135 130 115 121 117 132 138 149 159 165 166 167 166 169 171 171 172 171 170 175 172 173 180 188 177 181 179 190 183 181 202 193 176 188 182 185 194 206 200 207 190 200 221 209
239 215 146 111 140 155 174 136 116 131 145 150 157 162 166 170 172 175 177 178 177 176 175 177 181 180 183 190 192 187 190 186 199 186 187 203 199 181 208 204 202 195 189 188 209 197 207 210 204
220 222 194 129 157 169 229 121 118 142 158 160 163 166 172 178 182 183 182 183 181 180 179 185 188 183 187 193 194 193 195 192 202 200 195 205 209 209 229 220 208 190 216 204 195 215 211 204 218
220 232 223 144 172 194 229 126 125 155 167 167 170 172 177 182 190 188 188 186 185 185 184 186 191 188 190 189 192 201 194 201 209 211 210 198 205 210 225 223 199 210 218 223 224 189 226 214 231
245 250 240 218 161 214 226 184 144 169 177 176 179 179 181 187 191 189 191 189 187 187 187 188 189 191 190 188 190 200 203 204 209 212 210 209 206 209 229 213 205 228 219 223 220 213 234 248 242
281 265 256 250 184 233 234 218 178 177 188 186 186 188 189 192 187 185 189 190 189 189 190 192 194 188 192 194 198 198 201 206 205 209 203 207 214 207 221 236 196 226 224 235 225 227 217 230 227
251 252 243 202 180 248 250 240 201 192 202 199 195 195 196 192 185 184 189 190 191 191 193 194 196 194 198 198 204 207 211 212 208 214 197 208 211 212 209 220 225 213 219 226 226 230 247 235 211
244 255 260 262 222 216 238 232 208 194 202 201 205 203 200 198 192 187 190 193 193 193 195 197 197 197 202 199 202 199 200 215 205 204 202 208 211 214 225 217 230 229 234 222 227 228 234 240 224
246 248 252 247 245 235 239 252 205 194 196 201 205 205 204 200 198 192 192 194 196 195 194 196 196 199 199 201 208 207 209 214 213 209 201 202 210 217 218 222 222 226 233 223 229 217 231 239 241
265 260 242 245 251 257 233 253 224 194 208 207 204 206 207 202 199 197 196 194 197 194 192 193 194 198 199 204 206 211 218 218 215 211 206 218 210 216 220 219 220 219 227 225 235 229 236 233 242
211 203 212 236 244 245 240 251 244 216 221 213 202 202 204 202 200 199 198 192 194 193 193 192 192 198 200 204 207 212 219 220 222 217 214 214 213 213 214 219 219 221 225 220 224 230 228 236 243
212 227 228 226 226 239 210 246 259 235 230 224 209 201 200 200 199 196 195 191 193 193 194 194 192 197 200 202 207 209 215 216 219 222 219 226 224 214 209 218 217 220 221 224 223 223 235 229 232
224 242 251 261 261 244 197 238 230 190 212 222 219 199 198 200 198 196 194 194 195 195 195 195 193 197 199 202 205 209 211 215 217 217 228 223 231 228 209 213 218 221 222 222 219 227 227 229 232
224 235 258 263 266 270 242 233 203 199 211 203 196 184 194 201 200 199 196 197 196 198 197 197 195 198 201 200 199 204 207 215 218 212 218 226 224 222 212 214 218 219 220 224 224 228 231 228 232
256 247 243 251 257 260 245 239 230 202 218 203 198 202 198 199 199 199 198 196 196 197 197 200 197 198 201 201 200 198 202 207 212 215 214 220 219 217 215 215 218 220 220 223 228 230 227 231 233
207 222 239 251 262 265 262 245 89 213 224 225 220 195 191 197 196 189 192 194 194 194 193 196 195 195 198 201 201 202 200 203 206 211 214 212 214 212 216 219 221 223 223 224 225 234 234 232 235
247 239 234 244 246 252 270 259 103 175 251 248 249 181 197 190 191 184 180 186 192 194 193 193 194 197 198 196 196 199 200 201 205 207 210 211 212 215 216 218 222 226 226 225 227 232 233 231 233